SCP
0 1 1 1 1 1 1 0 0 0 0 0 0 0 0 0 0 0 0 0 0 0 0 0 0 0 0 0 0 0 0 0 0 0 0 0 0 0 0 0 0 0 0
1 1 1 1 1 1 1 0 0 0 0 0 0 0 0 0 0 0 0 0 0 0 0 0 0 0 0 0 0 0 0 0 0 0 0 0 0 0 0 0 0 0 0
1 1 1 1 1 1 0 0 0 0 0 0 0 0 0 0 0 0 0 0 0 0 0 0 0 0 0 0 0 0 0 0 0 0 0 0 0 0 0 0 0 0 0
1 1 1 1 1 1 0 0 0 0 0 0 0 0 0 0 0 0 0 0 0 0 0 0 0 0 0 0 0 0 0 0 0 0 0 0 0 0 0 0 0 0 0
1 1 1 1 1 1 0 0 0 0 0 0 0 0 0 0 0 0 0 0 0 0 0 0 0 0 0 0 0 0 0 0 0 0 0 0 0 0 0 0 0 0 0
1 1 1 1 1 1 0 0 0 0 0 0 0 0 0 0 0 0 0 0 0 0 0 0 0 0 0 0 0 0 0 0 0 0 0 0 0 0 0 0 0 0 0
1 1 1 1 1 1 0 0 0 0 0 0 0 0 0 0 0 0 0 0 0 0 0 0 0 0 0 0 0 0 0 0 0 0 0 0 0 0 0 0 0 0 0
1 1 1 1 1 0 0 0 0 0 0 0 0 0 0 0 0 0 0 0 0 0 0 0 0 0 0 0 0 0 0 0 0 0 0 0 0 0 0 0 0 0 0
0 1 1 1 0 0 0 0 0 0 0 0 0 0 0 0 0 0 0 0 0 0 0 0 0 0 0 0 0 0 0 0 0 0 0 0 0 0 0 0 0 0 0
0 1 1 1 1 0 0 0 0 0 0 0 0 0 0 0 0 0 0 0 0 0 0 0 0 0 0 0 0 0 0 0 0 0 0 0 0 0 0 0 0 0 0
1 1 1 1 1 0 0 0 0 0 0 0 0 0 0 0 0 0 0 0 0 0 0 0 0 0 0 0 0 0 0 0 0 0 0 0 0 0 0 0 0 0 0
1 1 1 1 1 0 0 0 0 0 0 0 0 0 0 0 0 0 0 0 0 0 0 0 0 0 0 0 0 0 0 0 0 0 0 0 0 0 0 0 0 0 0
1 1 1 1 1 1 0 0 0 0 0 0 0 0 0 0 0 0 0 0 0 0 0 0 0 0 0 0 0 0 0 0 0 0 0 0 0 0 0 0 0 0 0
1 1 1 1 1 1 1 0 0 1 0 0 0 0 0 0 0 0 0 0 0 0 0 0 0 0 0 0 0 0 0 0 0 0 0 0 0 0 0 0 0 0 0
1 1 1 1 1 1 1 1 1 1 0 0 0 0 0 0 0 0 0 0 0 0 0 0 0 0 0 0 0 0 0 0 0 0 0 0 0 0 0 0 0 0 0
0 1 1 1 1 1 1 0 0 0 0 1 1 0 0 0 0 0 0 0 0 0 0 0 0 0 0 0 0 0 0 0 0 0 0 0 0 0 0 0 0 0 0
0 1 1 1 1 1 1 0 0 0 0 1 0 0 0 0 0 0 0 0 0 0 0 0 0 0 0 0 0 0 0 0 0 0 0 0 0 0 0 0 0 0 0
0 1 1 1 1 1 1 0 0 0 0 0 0 0 0 0 0 0 0 0 0 0 0 0 0 0 0 0 0 0 0 0 0 0 0 0 0 0 0 0 0 0 0
1 1 1 1 1 1 1 1 0 0 0 0 0 0 0 0 0 0 0 0 0 0 0 0 0 0 0 0 0 0 0 0 0 0 0 0 0 0 0 0 0 0 0
1 1 1 1 1 1 1 1 0 0 0 0 0 0 0 0 0 0 0 0 0 0 0 0 0 0 0 0 0 0 0 0 0 0 0 0 0 0 0 0 0 0 0
1 1 1 1 2 2 1 1 1 1 0 0 0 0 0 0 0 0 0 0 0 0 0 0 0 0 0 0 0 0 0 0 0 0 0 0 0 0 0 0 0 0 0
1 1 1 1 2 2 1 1 1 1 1 0 0 0 0 0 0 0 0 0 0 0 0 0 0 0 0 0 0 0 0 0 0 0 0 0 0 0 0 0 0 0 0
1 1 1 1 2 2 2 1 1 1 1 1 1 0 0 0 0 0 0 0 0 0 0 0 0 0 0 0 0 0 0 0 0 0 0 0 0 0 0 0 0 0 0
1 1 1 1 2 2 2 1 1 1 1 1 1 1 1 0 0 0 0 0 0 0 0 0 0 0 0 0 0 0 0 0 0 0 0 0 0 0 0 0 0 0 0
1 1 1 1 2 2 2 2 1 1 1 1 1 1 1 1 1 1 0 0 0 0 0 0 0 0 0 0 0 0 0 0 0 0 0 0 0 0 0 0 0 0 0
1 1 1 1 2 2 2 2 1 1 1 1 1 1 1 1 1 1 1 1 1 1 0 0 0 0 0 0 0 0 0 0 0 0 0 0 0 0 0 0 0 0 0
Wind_Speed
10 12 14 14 14 13 13 13 12 12 12 12 12 12 12 12 11 12 12 12 12 12 13 13 14 14 14 14 14 13 13 13 13 13 12 12 12 13 12 11 9 10 12
13 14 14 13 14 14 13 13 12 12 12 12 12 12 12 11 11 11 11 11 12 12 12 13 13 13 13 13 12 12 12 12 11 10 8 9 11 11 11 11 11 9 11
14 14 15 12 14 14 13 12 12 11 12 11 11 11 11 11 11 11 11 11 12 12 12 12 12 11 11 11 11 10 10 10 9 7 3 7 9 10 10 10 10 10 9
14 14 14 13 13 14 13 12 12 11 11 11 11 11 11 11 11 11 10 10 11 11 11 11 11 10 10 10 9 9 9 9 7 3 4 6 7 8 8 9 9 9 8
13 12 13 13 13 14 13 12 11 11 11 11 11 10 11 11 10 10 10 9 10 10 10 10 10 9 9 9 9 9 8 7 5 3 5 5 5 7 7 7 7 7 7
12 12 13 12 13 13 13 12 11 11 10 10 10 10 10 10 10 9 9 9 9 9 9 9 9 8 8 8 8 8 7 5 1 5 5 4 5 6 5 5 5 5 5
12 11 13 11 11 12 12 11 11 10 10 10 10 10 9 9 9 8 8 8 8 8 8 8 7 7 7 7 7 6 6 3 3 4 4 4 5 5 4 4 4 4 5
11 10 12 10 10 10 10 10 10 10 10 9 10 10 9 8 8 8 7 7 7 7 7 6 6 6 6 5 5 5 4 2 1 3 3 3 5 4 4 4 4 4 4
9 9 10 11 10 9 9 9 9 8 8 8 8 8 7 7 7 6 6 6 6 6 5 5 4 4 4 4 4 3 3 2 2 1 1 2 4 4 4 4 4 3 4
8 8 9 9 10 10 10 9 8 8 7 7 7 7 7 6 6 5 5 5 5 5 4 4 4 3 3 3 3 2 1 3 1 1 1 2 4 4 4 4 4 4 5
7 7 8 8 8 8 8 9 9 8 7 7 7 7 7 6 6 5 4 4 3 3 4 3 3 3 2 2 2 0 2 1 2 2 1 3 5 5 5 5 5 5 6
9 8 8 8 8 8 6 7 7 7 7 7 6 7 6 4 3 3 5 3 3 3 3 3 2 3 3 2 2 3 2 2 2 2 1 3 5 5 5 5 5 6 6
8 8 7 8 8 7 5 5 4 4 5 6 6 6 5 4 3 3 3 4 4 4 4 3 4 2 2 2 2 2 2 3 2 2 2 3 5 6 6 6 6 6 7
8 8 8 7 7 7 6 5 5 4 4 4 5 6 5 4 4 3 3 3 3 3 3 3 2 3 3 3 3 3 4 3 3 3 2 3 6 7 7 8 8 7 7
8 8 8 8 8 7 6 5 5 5 5 5 5 5 6 4 4 4 3 3 4 3 4 4 3 4 4 4 4 4 5 5 5 4 3 3 5 7 8 8 8 8 8
8 8 8 8 8 8 6 6 5 5 5 5 5 6 6 5 4 4 4 4 4 4 4 4 4 4 4 3 4 5 5 5 5 5 5 4 4 6 8 8 9 9 9
8 8 8 8 8 8 8 7 5 5 5 5 5 6 6 6 5 5 4 4 4 4 4 4 4 4 4 4 5 5 5 5 6 6 6 5 4 4 6 8 8 8 9
7 8 8 6 8 9 8 7 5 5 5 5 5 5 7 7 6 5 4 4 4 4 4 4 4 4 4 4 4 4 4 5 6 6 6 5 5 4 4 5 6 7 8
6 7 8 8 8 9 8 6 6 5 5 5 5 5 6 7 7 6 5 4 4 4 4 4 4 4 4 5 5 5 5 5 6 6 6 6 5 5 5 3 4 5 7
5 6 7 7 8 8 7 6 5 5 5 5 5 6 7 6 7 7 5 6 5 4 4 4 5 4 4 4 4 5 6 6 5 5 6 5 5 5 5 4 4 3 4
4 5 6 7 7 7 6 6 6 6 5 5 5 6 7 7 7 7 5 6 5 5 6 6 5 5 4 3 4 5 6 6 6 5 4 4 4 4 4 4 3 3 2
3 4 5 6 7 7 6 6 5 5 5 5 5 6 7 7 7 6 7 6 6 5 6 6 5 4 4 3 3 4 4 4 3 4 3 3 4 3 3 3 3 3 2
3 4 4 6 6 7 7 6 4 4 3 4 5 5 7 7 7 7 8 7 6 6 6 7 6 7 5 5 5 4 4 4 3 3 3 3 3 3 3 2 3 3 3
3 3 4 4 5 6 6 6 7 6 6 7 6 5 6 7 7 8 8 8 7 6 7 7 7 6 7 5 5 6 6 5 4 4 3 3 3 3 3 2 3 3 3
4 3 2 3 3 4 5 7 8 7 7 5 5 6 6 6 7 7 7 7 7 6 7 7 7 7 6 6 5 4 6 6 7 6 6 5 4 3 3 4 3 3 3
4 4 2 2 2 3 4 6 8 8 8 7 7 6 5 4 5 7 7 7 7 7 7 7 7 8 7 7 6 5 5 5 5 6 8 7 6 4 4 4 4 3 3
Wind_Direction
158 153 150 150 145 141 138 135 133 129 126 126 125 121 116 114 109 107 106 104 99 97 94 91 88 84 81 79 77 75 74 72 69 68 69 70 70 69 63 54 55 66 59
151 152 147 147 145 142 141 138 136 133 129 128 126 123 117 114 113 109 106 106 103 99 95 92 89 87 84 81 79 77 76 74 70 65 70 82 73 67 62 55 50 59 58
149 149 150 146 144 143 142 140 139 136 133 130 128 124 119 116 115 112 108 106 104 101 98 94 92 90 87 84 82 80 78 75 69 60 64 80 78 68 63 57 55 55 53
149 151 152 144 145 145 144 143 140 139 137 135 131 127 122 118 116 115 111 109 105 102 98 96 95 92 89 85 84 82 79 73 65 48 69 68 72 66 61 57 53 48 46
150 152 144 146 149 148 147 146 145 142 140 137 133 130 127 122 117 115 115 111 107 104 101 98 96 92 89 85 84 82 78 72 61 66 69 65 65 63 57 55 52 46 39
152 153 145 150 150 149 148 148 147 146 144 140 136 132 129 126 122 119 118 115 111 107 105 101 97 94 91 88 84 81 76 68 63 67 62 55 57 54 51 50 49 44 38
155 154 151 151 149 149 150 150 150 150 148 144 141 136 132 131 131 128 124 119 114 111 108 105 102 96 91 86 82 80 73 51 46 60 52 49 47 33 36 39 36 36 30
156 156 155 147 148 150 152 152 151 152 151 149 146 143 139 136 137 135 130 124 120 116 111 107 105 100 94 88 86 82 70 15 62 56 49 48 36 13 13 15 17 16 13
159 161 162 163 160 155 154 153 152 152 152 151 149 144 139 134 135 134 132 131 128 125 121 115 111 105 97 87 85 84 72 352 310 40 17 26 11 349 353 356 352 348 344
166 170 171 171 172 170 167 156 155 154 153 149 146 141 139 137 133 126 141 129 134 134 129 125 121 118 102 91 84 80 83 253 319 325 322 15 340 326 331 332 329 328 327
176 179 178 179 179 178 175 164 166 161 158 157 155 146 158 172 167 161 152 122 127 132 137 138 140 133 131 128 112 94 248 287 321 311 314 356 319 314 318 317 315 315 317
185 187 185 187 185 183 178 175 181 180 177 184 180 177 187 184 176 179 140 147 144 145 161 166 164 177 223 205 173 221 259 288 285 291 328 336 311 308 310 311 311 307 304
191 188 191 192 189 186 183 183 182 184 185 192 190 190 192 191 183 192 181 177 188 193 202 188 205 223 236 256 269 269 285 284 282 288 308 318 302 300 300 302 302 302 304
195 196 192 193 193 192 189 188 186 186 191 194 194 196 195 197 200 197 202 201 203 208 216 222 230 237 246 253 263 271 275 276 280 283 297 296 291 293 295 297 296 296 297
202 199 198 193 194 192 192 193 193 194 196 195 195 200 204 204 206 205 207 212 217 218 219 228 235 242 251 255 259 265 271 277 280 278 277 267 278 286 289 291 292 292 293
209 204 199 198 196 191 192 194 197 199 200 201 199 204 208 213 212 210 213 218 225 229 232 236 242 248 253 258 262 265 272 276 275 277 279 271 256 272 282 286 288 290 292
212 208 202 200 198 195 195 199 199 201 201 204 206 208 208 214 215 215 218 221 225 228 232 238 244 250 255 256 261 264 269 272 274 276 275 276 271 253 263 280 284 287 289
216 211 206 201 202 200 199 198 201 203 203 206 208 209 213 216 216 216 221 227 223 220 225 232 239 246 252 257 264 267 268 270 272 273 270 267 270 274 260 265 276 284 287
224 215 209 204 206 204 201 199 200 203 208 210 209 212 214 215 217 219 223 224 219 220 225 229 236 246 256 262 269 273 273 271 272 268 264 266 266 268 270 257 251 271 282
232 222 215 207 209 204 199 197 199 204 211 215 215 217 217 217 217 221 226 225 217 221 225 227 235 239 253 266 272 273 272 269 266 264 265 263 260 261 261 263 253 243 261
242 229 220 215 212 204 198 199 201 208 210 214 218 221 219 220 217 218 222 225 221 226 229 226 231 239 245 253 265 272 265 256 256 257 258 259 259 258 256 256 259 263 244
252 241 233 226 217 210 209 205 206 208 214 216 214 221 223 222 219 219 221 222 222 228 231 227 223 234 237 225 244 268 274 253 232 239 248 254 264 260 254 253 252 251 259
265 252 240 232 224 216 212 206 197 199 209 213 218 221 222 223 223 222 226 227 224 223 227 225 221 227 236 226 227 240 258 266 290 232 237 248 254 256 257 252 249 245 248
286 275 259 249 235 221 210 208 207 210 217 222 222 222 221 219 222 224 226 226 227 225 229 227 222 227 233 234 227 236 252 275 274 276 238 240 257 265 262 258 251 247 248
326 312 289 270 251 232 216 214 215 223 228 228 225 224 223 219 221 223 225 226 228 229 232 231 225 225 227 234 232 231 239 248 253 263 272 268 261 253 254 259 257 250 249
351 351 329 302 272 253 231 221 219 225 229 228 226 226 225 223 221 224 226 228 230 230 232 233 230 228 229 234 237 234 234 234 236 243 258 270 274 272 263 257 251 247 246